Cas;Teplota [C];Tlak [hPa];Svetlo [lux];Rychlost vetru [km/h];Smer vetru [stupne]
2022-05-20 00:00:02;16.93;1015.46;9;0;0
2022-05-20 00:01:01;16.86;1015.46;8;0;0
2022-05-20 00:02:01;16.97;1015.32;8;0;0
2022-05-20 00:03:01;16.99;1015.39;8;0;0
2022-05-20 00:04:01;17.09;1015.39;8;0;0
2022-05-20 00:05:01;17.01;1015.38;9;0;0
2022-05-20 00:06:01;17.01;1015.4;9;0;0
2022-05-20 00:07:01;17.03;1015.39;9;0;0
2022-05-20 00:08:01;17.06;1015.33;8;0;0
2022-05-20 00:09:01;17.02;1015.29;9;0;0
2022-05-20 00:10:01;17.13;1015.36;8;0;0
2022-05-20 00:11:01;16.97;1015.33;8;0;0
2022-05-20 00:12:01;17.02;1015.31;8;0;0
2022-05-20 00:13:01;17.06;1015.27;9;0;0
2022-05-20 00:14:01;17.1;1015.26;9;0;0
2022-05-20 00:15:01;17.17;1015.34;8;0;0
2022-05-20 00:16:01;17.2;1015.37;9;0;0
2022-05-20 00:17:01;17.13;1015.43;8;0;0
2022-05-20 00:18:01;17.17;1015.46;8;0;0
2022-05-20 00:19:01;17.14;1015.43;8;0;0
2022-05-20 00:20:01;17.24;1015.44;9;0;0
2022-05-20 00:21:02;17.29;1015.41;9;0;0
2022-05-20 00:22:01;17.27;1015.41;9;0;0
2022-05-20 00:23:01;17.33;1015.31;9;0;0
2022-05-20 00:24:01;17.49;1015.34;9;0;0
2022-05-20 00:25:01;17.49;1015.32;8;0;0
2022-05-20 00:26:01;17.45;1015.4;8;0;0
2022-05-20 00:27:01;17.46;1015.43;8;0;0
2022-05-20 00:28:01;17.49;1015.39;8;0;0
2022-05-20 00:29:02;17.58;1015.37;9;0;0
2022-05-20 00:30:01;17.51;1015.38;8;0;0
2022-05-20 00:31:01;17.51;1015.33;9;0;0
2022-05-20 00:32:01;17.68;1015.3;9;0;0
2022-05-20 00:33:02;17.65;1015.23;8;0;0
2022-05-20 00:34:01;17.78;1015.21;8;0;0
2022-05-20 00:35:01;17.79;1015.21;8;0;0
2022-05-20 00:36:01;17.74;1015.15;8;0;0
2022-05-20 00:37:01;17.82;1015.03;9;0;0
2022-05-20 00:38:02;17.77;1014.99;8;0;0
2022-05-20 00:39:01;17.76;1015.08;9;0;0
2022-05-20 00:40:01;17.79;1015.06;9;0;0
2022-05-20 00:41:02;17.8;1014.95;10;0;0
2022-05-20 00:42:01;17.86;1014.95;9;0;0
2022-05-20 00:43:01;17.8;1014.97;9;0;0
2022-05-20 00:44:01;17.82;1015.05;8;0;0
2022-05-20 00:45:02;17.75;1015.16;9;0;0
2022-05-20 00:46:01;17.69;1015.18;8;0;0
2022-05-20 00:47:01;17.86;1015.14;9;0;0
2022-05-20 00:48:01;17.83;1014.99;9;2.57;30
2022-05-20 00:49:01;17.69;1014.84;9;2.28;81
2022-05-20 00:50:01;17.87;1014.76;8;0;0
2022-05-20 00:51:02;17.82;1014.76;9;0;0
2022-05-20 00:52:01;17.98;1014.72;9;0;0
2022-05-20 00:53:01;17.87;1014.72;8;0;0
2022-05-20 00:54:01;17.84;1014.71;8;0;0
2022-05-20 00:55:01;17.86;1014.69;8;0;0
2022-05-20 00:56:01;17.86;1014.7;9;0;0
2022-05-20 00:57:01;17.77;1014.66;9;0;0
2022-05-20 00:58:01;17.8;1014.68;8;0;0
2022-05-20 00:59:01;17.78;1014.68;8;0;0
2022-05-20 01:00:01;17.76;1014.69;8;0;0
2022-05-20 01:01:01;17.75;1014.66;9;0;0
2022-05-20 01:02:01;17.8;1014.64;8;0;0
2022-05-20 01:03:01;17.66;1014.68;8;0;0
2022-05-20 01:04:02;17.75;1014.63;8;0;0
2022-05-20 01:05:01;17.78;1014.58;8;0;0
2022-05-20 01:06:01;17.76;1014.56;9;0;0
2022-05-20 01:07:01;17.88;1014.58;9;0;0
2022-05-20 01:08:01;17.8;1014.59;9;0;0
2022-05-20 01:09:01;17.68;1014.6;9;0;0
2022-05-20 01:10:02;17.72;1014.62;8;0;0
2022-05-20 01:11:01;17.89;1014.63;9;0;0
2022-05-20 01:12:02;17.91;1014.64;8;0;0
2022-05-20 01:13:01;18.08;1014.63;9;0;0
2022-05-20 01:14:01;17.97;1014.64;9;0;0
2022-05-20 01:15:01;17.89;1014.64;9;0;0
2022-05-20 01:16:01;17.82;1014.61;8;0;0
2022-05-20 01:17:01;17.94;1014.62;9;0;0
2022-05-20 01:18:01;17.82;1014.6;9;0;0
2022-05-20 01:19:01;17.88;1014.61;9;0;0
2022-05-20 01:20:01;17.93;1014.64;8;0;0
2022-05-20 01:21:01;17.94;1014.63;8;0;0
2022-05-20 01:22:01;17.76;1014.57;9;0;0
2022-05-20 01:23:01;17.86;1014.58;8;0;0
2022-05-20 01:24:01;18;1014.62;9;0;0
2022-05-20 01:25:01;17.99;1014.64;9;0;0
2022-05-20 01:26:01;17.88;1014.61;9;0;0
2022-05-20 01:27:01;17.81;1014.62;9;0;0
2022-05-20 01:28:01;17.64;1014.66;9;0;0
2022-05-20 01:29:01;17.8;1014.62;9;0;0
2022-05-20 01:30:01;17.77;1014.65;8;0;0
2022-05-20 01:31:01;17.61;1014.66;8;0;0
2022-05-20 01:32:01;17.72;1014.72;8;0;0
2022-05-20 01:33:01;17.82;1014.84;9;0;0
2022-05-20 01:34:01;17.6;1014.93;9;0;0
2022-05-20 01:35:01;17.88;1015.04;9;0;0
2022-05-20 01:36:01;17.78;1015.03;8;0;0
2022-05-20 01:37:01;17.8;1015.03;8;0;0
2022-05-20 01:38:01;17.74;1014.99;8;0;0
2022-05-20 01:39:01;17.72;1015.02;8;0;0
2022-05-20 01:40:01;17.72;1015.02;9;0;0
2022-05-20 01:41:01;17.91;1015.16;9;0;0
2022-05-20 01:42:01;17.9;1015.26;8;0;0
2022-05-20 01:43:01;17.84;1015.28;8;0;0
2022-05-20 01:44:01;17.8;1015.29;9;0;0
2022-05-20 01:45:01;17.68;1015.39;8;0;0
2022-05-20 01:46:01;17.88;1015.48;9;0;0
2022-05-20 01:47:01;17.76;1015.5;8;0;0
2022-05-20 01:48:02;17.65;1015.49;9;0;0
2022-05-20 01:49:01;17.77;1015.49;8;0;0
2022-05-20 01:50:01;17.68;1015.46;8;0;0
2022-05-20 01:51:01;17.6;1015.49;9;0;0
2022-05-20 01:52:01;17.71;1015.52;8;0;0
2022-05-20 01:53:01;17.64;1015.57;9;0;0
2022-05-20 01:54:01;17.6;1015.59;8;0;0
2022-05-20 01:55:01;17.58;1015.63;9;0;0
2022-05-20 01:56:01;17.66;1015.59;8;0;0
2022-05-20 01:57:01;17.48;1015.62;8;0;0
2022-05-20 01:58:01;17.37;1015.59;9;0;0
2022-05-20 01:59:01;17.56;1015.55;9;0;0
2022-05-20 02:00:01;17.44;1015.59;9;0;0
2022-05-20 02:01:01;17.4;1015.59;8;0;0
2022-05-20 02:02:01;17.3;1015.62;8;0;0
2022-05-20 02:03:01;17.39;1015.59;9;0;0
2022-05-20 02:04:01;17.36;1015.62;8;0;0
2022-05-20 02:05:01;17.36;1015.59;8;0;0
2022-05-20 02:06:01;17.24;1015.57;8;0;0
2022-05-20 02:07:01;17.59;1015.58;9;0;0
2022-05-20 02:08:01;17.41;1015.6;9;0;0
2022-05-20 02:09:01;17.44;1015.62;8;0;0
2022-05-20 02:10:02;17.51;1015.64;9;0;0
2022-05-20 02:11:01;17.38;1015.65;8;0;0
2022-05-20 02:12:01;17.27;1015.63;9;0;0
2022-05-20 02:13:01;17.34;1015.62;9;0;0
2022-05-20 02:14:01;17.36;1015.59;9;0;0
2022-05-20 02:15:01;17.26;1015.58;9;0;0
2022-05-20 02:16:01;17.29;1015.57;8;0;0
2022-05-20 02:17:01;17.37;1015.53;8;0;0
2022-05-20 02:18:02;17.35;1015.55;8;0;0
2022-05-20 02:19:01;17.28;1015.6;9;0;0
2022-05-20 02:20:01;17.23;1015.57;8;0;0
2022-05-20 02:21:01;17.44;1015.57;8;0;0
2022-05-20 02:22:01;17.23;1015.53;9;0;0
2022-05-20 02:23:01;17.45;1015.58;8;0;0
2022-05-20 02:24:01;17.49;1015.58;8;0;0
2022-05-20 02:25:01;17.4;1015.59;9;0;0
2022-05-20 02:26:01;17.34;1015.63;8;0;0
2022-05-20 02:27:02;17.45;1015.62;8;0;0
2022-05-20 02:28:01;17.34;1015.6;8;0;0
2022-05-20 02:29:01;17.42;1015.63;8;0;0
2022-05-20 02:30:01;17.23;1015.6;9;0;0
2022-05-20 02:31:01;17.25;1015.63;8;0;0
2022-05-20 02:32:01;17.28;1015.62;8;0;0
2022-05-20 02:33:02;17.25;1015.61;8;0;0
2022-05-20 02:34:01;17.19;1015.61;9;0;0
2022-05-20 02:35:01;17.13;1015.6;8;0;0
2022-05-20 02:36:01;17.21;1015.63;8;0;0
2022-05-20 02:37:01;16.95;1015.61;8;0;0
2022-05-20 02:38:01;17.1;1015.64;8;0;0
2022-05-20 02:39:01;17.11;1015.59;8;0;0
2022-05-20 02:40:01;17.07;1015.57;7;0;0
2022-05-20 02:41:01;17.07;1015.59;8;0;0
2022-05-20 02:42:01;17.27;1015.58;9;0;0
2022-05-20 02:43:01;17.09;1015.54;8;0;0
2022-05-20 02:44:01;17.1;1015.54;9;0;0
2022-05-20 02:45:01;17.08;1015.55;8;0;0
2022-05-20 02:46:01;17.11;1015.58;8;0;0
2022-05-20 02:47:02;17.01;1015.58;8;0;0
2022-05-20 02:48:01;17.02;1015.54;8;0;0
2022-05-20 02:49:01;16.99;1015.54;8;0;0
2022-05-20 02:50:01;16.99;1015.54;8;0;0
2022-05-20 02:51:01;16.88;1015.55;7;0;0
2022-05-20 02:52:01;16.94;1015.56;8;0;0
2022-05-20 02:53:01;16.95;1015.56;8;0;0
2022-05-20 02:54:01;16.93;1015.59;8;0;0
2022-05-20 02:55:01;16.96;1015.64;8;0;0
2022-05-20 02:56:01;16.95;1015.66;8;0;0
2022-05-20 02:57:01;16.74;1015.62;8;0;0
2022-05-20 02:58:01;16.69;1015.56;8;0;0
2022-05-20 02:59:02;16.93;1015.57;8;0;0
2022-05-20 03:00:01;16.87;1015.57;8;0;0
2022-05-20 03:01:01;16.85;1015.6;8;0;0
2022-05-20 03:02:01;16.75;1015.57;8;0;0
2022-05-20 03:03:01;16.76;1015.63;8;0;0
2022-05-20 03:04:01;16.8;1015.63;8;0;0
2022-05-20 03:05:01;16.58;1015.63;8;0;0
2022-05-20 03:06:01;16.8;1015.63;8;0;0
2022-05-20 03:07:01;16.87;1015.64;9;0;0
2022-05-20 03:08:01;16.68;1015.66;8;0;0
2022-05-20 03:09:01;16.72;1015.65;8;0;0
2022-05-20 03:10:01;16.55;1015.66;8;0;0
2022-05-20 03:11:01;16.46;1015.68;8;0;0
2022-05-20 03:12:01;16.52;1015.67;9;0;0
2022-05-20 03:13:01;16.51;1015.67;8;0;0
2022-05-20 03:14:01;16.52;1015.72;8;0;0
2022-05-20 03:15:01;16.53;1015.72;8;0;0
2022-05-20 03:16:01;16.47;1015.68;8;0;0
2022-05-20 03:17:01;16.46;1015.68;8;0;0
2022-05-20 03:18:01;16.65;1015.67;8;0;0
2022-05-20 03:19:01;16.61;1015.69;7;0;0
2022-05-20 03:20:01;16.68;1015.7;8;0;0
2022-05-20 03:21:01;16.52;1015.7;8;0;0
2022-05-20 03:22:01;16.65;1015.72;8;0;0
2022-05-20 03:23:02;16.4;1015.73;8;0;0
2022-05-20 03:24:01;16.25;1015.74;8;0;0
2022-05-20 03:25:01;16.45;1015.76;8;0;0
2022-05-20 03:26:01;16.61;1015.77;9;0;0
2022-05-20 03:27:01;16.62;1015.8;8;0;0
2022-05-20 03:28:01;16.56;1015.84;8;0;0
2022-05-20 03:29:01;16.57;1015.88;8;0;0
2022-05-20 03:30:01;16.5;1015.89;8;0;0
2022-05-20 03:31:01;16.59;1015.98;8;0;0
2022-05-20 03:32:01;16.62;1015.98;8;0;0
2022-05-20 03:33:01;16.68;1015.96;9;0;0
2022-05-20 03:34:01;16.54;1015.98;8;0;0
2022-05-20 03:35:01;16.58;1015.96;8;0;0
2022-05-20 03:36:01;16.69;1015.95;8;0;0
2022-05-20 03:37:01;16.55;1015.94;8;0;0
2022-05-20 03:38:01;16.49;1015.93;8;0;0
2022-05-20 03:39:01;16.73;1015.92;8;0;0
2022-05-20 03:40:01;16.59;1015.89;7;0;0
2022-05-20 03:41:01;16.67;1015.85;8;0;0
2022-05-20 03:42:02;16.59;1015.88;8;0;0
2022-05-20 03:43:01;16.66;1015.94;8;0;0
2022-05-20 03:44:01;16.59;1015.93;8;0;0
2022-05-20 03:45:01;16.43;1015.93;7;0;0
2022-05-20 03:46:02;16.48;1015.96;8;0;0
2022-05-20 03:47:01;16.54;1015.94;8;0;0
2022-05-20 03:48:01;16.48;1015.9;8;0;0
2022-05-20 03:49:01;16.48;1015.86;8;0;0
2022-05-20 03:50:01;16.52;1015.92;8;0;0
2022-05-20 03:51:01;16.57;1015.92;8;0;0
2022-05-20 03:52:01;16.56;1015.96;8;0;0
2022-05-20 03:53:01;16.52;1016.03;8;0;0
2022-05-20 03:54:01;16.43;1016.06;8;0;0
2022-05-20 03:55:01;16.56;1016.02;9;0;0
2022-05-20 03:56:01;16.47;1015.98;9;0;0
2022-05-20 03:57:01;16.65;1015.97;8;0;0
2022-05-20 03:58:01;16.56;1015.97;8;0;0
2022-05-20 03:59:01;16.71;1015.88;8;0;0
2022-05-20 04:00:01;16.56;1015.97;9;0;0
2022-05-20 04:01:01;16.52;1015.99;8;0;0
2022-05-20 04:02:01;16.58;1015.94;8;0;0
2022-05-20 04:03:01;16.48;1015.93;9;0;0
2022-05-20 04:04:02;16.36;1015.99;8;0;0
2022-05-20 04:05:01;16.61;1015.94;9;0;0
2022-05-20 04:06:02;16.53;1015.84;8;0;0
2022-05-20 04:07:01;16.55;1015.83;8;0;0
2022-05-20 04:08:01;16.42;1015.82;8;0;0
2022-05-20 04:09:01;16.48;1015.88;8;0;0
2022-05-20 04:10:02;16.7;1015.84;8;0;0
2022-05-20 04:11:01;16.43;1015.89;8;0;0
2022-05-20 04:12:01;16.51;1015.9;8;0;0
2022-05-20 04:13:01;16.28;1015.82;8;0;0
2022-05-20 04:14:01;16.3;1015.89;9;0;0
2022-05-20 04:15:01;16.35;1015.95;8;0;0
2022-05-20 04:16:01;16.16;1015.89;8;0;0
2022-05-20 04:17:01;16.05;1015.91;8;0;0
2022-05-20 04:18:01;16.21;1015.97;8;0;0
2022-05-20 04:19:01;16.23;1016.01;9;0;0
2022-05-20 04:20:01;16.18;1016.12;9;0;0
2022-05-20 04:21:01;16.06;1016.04;9;0;0
2022-05-20 04:22:01;16.04;1016.04;9;0;0
2022-05-20 04:23:01;16.3;1016.06;8;0;0
2022-05-20 04:24:02;16.19;1015.94;9;0;0
2022-05-20 04:25:01;15.96;1015.97;8;0;0
2022-05-20 04:26:01;15.99;1015.88;8;0;0
2022-05-20 04:27:02;16;1015.85;9;0;0
2022-05-20 04:28:01;16.07;1015.84;9;0;0
2022-05-20 04:29:01;15.88;1015.92;9;0;0
2022-05-20 04:30:01;15.85;1015.96;9;0;0
2022-05-20 04:31:02;15.8;1015.89;9;0;0
2022-05-20 04:32:01;15.79;1015.83;10;0;0
2022-05-20 04:33:01;15.84;1015.85;9;0;0
2022-05-20 04:34:01;15.73;1015.9;10;0;0
2022-05-20 04:35:01;15.75;1015.93;11;0;0
2022-05-20 04:36:01;15.76;1016.06;12;0;0
2022-05-20 04:37:01;15.75;1016.07;13;0;0
2022-05-20 04:38:01;15.61;1016.14;14;0;0
2022-05-20 04:39:01;15.79;1016.15;14;0;0
2022-05-20 04:40:01;15.72;1016.19;16;0;0
2022-05-20 04:41:01;15.74;1016.12;17;0;0
2022-05-20 04:42:01;15.54;1016.21;19;0;0
2022-05-20 04:43:01;15.57;1016.19;21;0;0
2022-05-20 04:44:01;15.47;1016.2;23;0;0
2022-05-20 04:45:01;15.63;1016.2;24;0;0
2022-05-20 04:46:01;15.66;1016.2;29;0;0
2022-05-20 04:47:01;15.45;1016.33;32;0;0
2022-05-20 04:48:01;15.47;1016.29;37;0;0
2022-05-20 04:49:01;15.4;1016.24;42;0;0
2022-05-20 04:50:01;15.45;1016.26;48;0;0
2022-05-20 04:51:02;15.59;1016.32;54;0;0
2022-05-20 04:52:01;15.44;1016.28;61;0;0
2022-05-20 04:53:01;15.46;1016.22;68;0;0
2022-05-20 04:54:01;15.48;1016.28;76;0;0
2022-05-20 04:55:02;15.48;1016.29;84;0;0
2022-05-20 04:56:01;15.63;1016.26;91;0;0
2022-05-20 04:57:01;15.66;1016.29;100;0;0
2022-05-20 04:58:01;15.6;1016.28;109;0;0
2022-05-20 04:59:01;15.39;1016.33;117;0;0
2022-05-20 05:00:01;15.52;1016.42;127;0;0
2022-05-20 05:01:02;15.42;1016.4;137;0;0
2022-05-20 05:02:01;15.48;1016.39;147;0;0
2022-05-20 05:03:01;15.39;1016.43;157;0;0
2022-05-20 05:04:01;15.41;1016.42;168;0;0
2022-05-20 05:05:01;15.39;1016.41;179;0;0
2022-05-20 05:06:01;15.38;1016.46;188;0;0
2022-05-20 05:07:01;15.31;1016.49;198;0;0
2022-05-20 05:08:01;15.29;1016.51;210;0;0
2022-05-20 05:09:02;15.32;1016.47;223;0;0
2022-05-20 05:10:01;15.16;1016.5;236;0;0
2022-05-20 05:11:01;15.26;1016.52;251;0;0
2022-05-20 05:12:01;15.17;1016.55;270;0;0
2022-05-20 05:13:01;15.21;1016.5;292;0;0
2022-05-20 05:14:01;15.34;1016.52;318;0;0
2022-05-20 05:15:01;15.28;1016.51;345;0;0
2022-05-20 05:16:01;15.13;1016.54;374;0;0
2022-05-20 05:17:01;15.14;1016.53;406;0;0
2022-05-20 05:18:01;15.23;1016.5;439;0;0
2022-05-20 05:19:01;15.3;1016.53;475;0;0
2022-05-20 05:20:01;15.03;1016.5;513;0;0
2022-05-20 05:21:01;15.18;1016.5;552;0;0
2022-05-20 05:22:01;15.15;1016.55;591;0;0
2022-05-20 05:23:02;15;1016.54;632;0;0
2022-05-20 05:24:01;15.29;1016.52;671;0;0
2022-05-20 05:25:01;15.24;1016.55;706;0;0
2022-05-20 05:26:01;15.34;1016.54;730;0;0
2022-05-20 05:27:01;15.44;1016.58;752;0;0
2022-05-20 05:28:01;15.31;1016.58;777;0;0
2022-05-20 05:29:01;15.19;1016.53;813;0;0
2022-05-20 05:30:01;15.23;1016.59;852;0;0
2022-05-20 05:31:02;15.21;1016.55;889;0;0
2022-05-20 05:32:01;15.24;1016.55;917;0;0
2022-05-20 05:33:01;15.33;1016.46;939;0;0
2022-05-20 05:34:01;15.4;1016.5;955;0;0
2022-05-20 05:35:01;15.21;1016.54;965;0;0
2022-05-20 05:36:01;15.26;1016.57;969;0;0
2022-05-20 05:37:01;15.12;1016.58;968;0;0
2022-05-20 05:38:01;15.24;1016.62;965;0;0
2022-05-20 05:39:01;15.22;1016.62;961;0;0
2022-05-20 05:40:02;15.19;1016.61;956;0;0
2022-05-20 05:41:01;15.16;1016.61;944;0;0
2022-05-20 05:42:01;15.26;1016.59;931;0;0
2022-05-20 05:43:01;15.11;1016.59;923;0;0
2022-05-20 05:44:01;15.13;1016.61;918;0;0
2022-05-20 05:45:01;15.19;1016.59;915;0;0
2022-05-20 05:46:01;15.14;1016.61;912;0;0
2022-05-20 05:47:01;15.1;1016.59;906;0;0
2022-05-20 05:48:01;15.02;1016.59;898;0;0
2022-05-20 05:49:01;15.2;1016.52;896;0;0
2022-05-20 05:50:02;15.13;1016.55;900;0;0
2022-05-20 05:51:01;15.18;1016.57;906;0;0
2022-05-20 05:52:01;15.13;1016.59;909;0;0
2022-05-20 05:53:01;15.11;1016.6;910;0;0
2022-05-20 05:54:01;15.16;1016.61;914;0;0
2022-05-20 05:55:01;15.11;1016.6;922;0;0
2022-05-20 05:56:02;15.08;1016.61;931;0;0
2022-05-20 05:57:01;15.02;1016.62;943;0;0
2022-05-20 05:58:01;15.05;1016.62;957;0;0
2022-05-20 05:59:01;15.06;1016.64;972;0;0
2022-05-20 06:00:01;15.08;1016.65;990;0;0
2022-05-20 06:01:02;14.92;1016.66;1009;0;0
2022-05-20 06:02:01;14.88;1016.72;1026;0;0
2022-05-20 06:03:01;15.02;1016.71;1043;0;0
2022-05-20 06:04:01;14.92;1016.7;1058;0;0
2022-05-20 06:05:01;14.93;1016.74;1074;0;0
2022-05-20 06:06:01;15.05;1016.7;1092;0;0
2022-05-20 06:07:02;15.09;1016.71;1115;0;0
2022-05-20 06:08:01;15.08;1016.73;1141;0;0
2022-05-20 06:09:01;15.19;1016.72;1172;0;0
2022-05-20 06:10:01;15.05;1016.76;1208;0;0
2022-05-20 06:11:01;15.34;1016.72;1242;0;0
2022-05-20 06:12:01;15.29;1016.75;1275;0;0
2022-05-20 06:13:01;15.04;1016.73;1301;0;0
2022-05-20 06:14:01;15.02;1016.71;1341;0;0
2022-05-20 06:15:01;15.2;1016.74;1380;0;0
2022-05-20 06:16:01;15.24;1016.75;1401;0;0
2022-05-20 06:17:01;15.21;1016.73;1419;0;0
2022-05-20 06:18:01;15.13;1016.78;1443;0;0
2022-05-20 06:19:01;15.25;1016.83;1461;0;0
2022-05-20 06:20:01;15.27;1016.8;1468;0;0
2022-05-20 06:21:01;15.25;1016.84;1476;0;0
2022-05-20 06:22:02;15.32;1016.9;1475;0;0
2022-05-20 06:23:01;15.22;1016.9;1480;0;0
2022-05-20 06:24:01;15.48;1016.94;1490;0;0
2022-05-20 06:25:01;15.33;1016.92;1497;0;0
2022-05-20 06:26:01;15.43;1016.99;1504;0;0
2022-05-20 06:27:01;15.48;1017.07;1513;0;0
2022-05-20 06:28:01;15.27;1017.02;1514;0;0
2022-05-20 06:29:01;15.33;1017.01;1523;0;0
2022-05-20 06:30:01;15.55;1017.12;1537;0;0
2022-05-20 06:31:01;15.53;1017.06;1552;0;0
2022-05-20 06:32:01;15.54;1017.04;1565;0;0
2022-05-20 06:33:01;15.57;1016.98;1575;0;0
2022-05-20 06:34:01;15.67;1016.95;1589;0;0
2022-05-20 06:35:01;15.62;1017.03;1605;0;0
2022-05-20 06:36:01;15.63;1017.04;1619;0;0
2022-05-20 06:37:01;15.72;1017.1;1625;0;0
2022-05-20 06:38:01;15.54;1017.07;1633;0;0
2022-05-20 06:39:01;15.65;1017.14;1643;0;0
2022-05-20 06:40:02;15.96;1017.13;1653;0;0
2022-05-20 06:41:01;15.88;1017.2;1666;0;0
2022-05-20 06:42:01;16.11;1017.28;1685;1.73;0
2022-05-20 06:43:01;16.18;1017.15;1697;0;0
2022-05-20 06:44:01;16.21;1017.14;1707;0;0
2022-05-20 06:45:01;16.32;1017.18;1718;0;0
2022-05-20 06:46:01;16.65;1017.22;1726;0;0
2022-05-20 06:47:01;16.65;1017.18;1728;0;0
2022-05-20 06:48:01;16.6;1017.19;1728;0;0
2022-05-20 06:49:01;16.82;1017.18;1731;0;0
2022-05-20 06:50:01;17.03;1017.27;1735;0;0
2022-05-20 06:51:01;17.17;1017.21;1739;0;0
2022-05-20 06:52:01;17.12;1017.3;1745;0;0
2022-05-20 06:53:02;17.3;1017.26;1754;0;0
2022-05-20 06:54:01;17.45;1017.22;1770;0;0
2022-05-20 06:55:01;17.42;1017.27;1777;0;0
2022-05-20 06:56:01;17.65;1017.32;1789;0;0
2022-05-20 06:57:01;17.55;1017.3;1797;0;0
2022-05-20 06:58:01;17.8;1017.31;1806;0;0
2022-05-20 06:59:01;17.98;1017.33;1807;0;0
2022-05-20 07:00:01;17.82;1017.25;1813;0;0
2022-05-20 07:01:01;18;1017.33;1814;0;0
2022-05-20 07:02:01;18.04;1017.31;1821;0;0
2022-05-20 07:03:01;18.2;1017.33;1821;0;0
2022-05-20 07:04:01;18.26;1017.33;1816;0;0
2022-05-20 07:05:01;18.43;1017.35;1816;0;0
2022-05-20 07:06:02;18.49;1017.35;1816;0;0
2022-05-20 07:07:01;18.47;1017.34;1816;0;0
2022-05-20 07:08:01;18.59;1017.34;1821;0;0
2022-05-20 07:09:01;18.73;1017.31;1818;0;0
2022-05-20 07:10:01;18.71;1017.36;1813;0;0
2022-05-20 07:11:02;18.85;1017.4;1808;0;0
2022-05-20 07:12:01;19.1;1017.35;1814;0;0
2022-05-20 07:13:01;18.84;1017.44;1821;0;0
2022-05-20 07:14:01;18.94;1017.42;1818;0;0
2022-05-20 07:15:01;19.08;1017.51;1819;0;0
2022-05-20 07:16:01;19.17;1017.48;1823;0;0
2022-05-20 07:17:01;19.25;1017.54;1825;0;0
2022-05-20 07:18:01;19.17;1017.58;1824;0;0
2022-05-20 07:19:01;19.31;1017.58;1825;0;0
2022-05-20 07:20:01;19.26;1017.57;1827;0;0
2022-05-20 07:21:02;19.35;1017.57;1830;0;0
2022-05-20 07:22:01;19.36;1017.59;1825;0;0
2022-05-20 07:23:01;19.44;1017.58;1832;0;0
2022-05-20 07:24:01;19.49;1017.6;1832;0;0
2022-05-20 07:25:02;19.58;1017.6;1832;0;0
2022-05-20 07:26:01;19.72;1017.61;1835;0;0
2022-05-20 07:27:01;19.69;1017.61;1839;0;0
2022-05-20 07:28:01;19.87;1017.62;1849;0;0
2022-05-20 07:29:01;19.97;1017.62;1856;0;0
2022-05-20 07:30:01;20.07;1017.62;1859;0;0
2022-05-20 07:31:01;19.98;1017.62;1861;0;0
2022-05-20 07:32:01;20.03;1017.62;1863;0;0
2022-05-20 07:33:01;20.24;1017.63;1867;0;0
2022-05-20 07:34:01;20.38;1017.63;1876;0;0
2022-05-20 07:35:01;20.5;1017.65;1884;0;0
2022-05-20 07:36:02;20.45;1017.65;1892;0;0
2022-05-20 07:37:01;20.37;1017.65;1900;0;0
2022-05-20 07:38:01;20.52;1017.64;1903;0;0
2022-05-20 07:39:01;20.42;1017.65;1909;0;0
2022-05-20 07:40:01;20.56;1017.65;1915;0;0
2022-05-20 07:41:01;20.74;1017.61;1924;0;0
2022-05-20 07:42:01;20.7;1017.61;1936;0;0
2022-05-20 07:43:01;20.74;1017.63;1947;0;0
2022-05-20 07:44:01;20.74;1017.63;1961;0;0
2022-05-20 07:45:01;20.78;1017.63;1975;0;0
2022-05-20 07:46:01;20.88;1017.62;1990;0;0
2022-05-20 07:47:01;21;1017.63;2012;0;0
2022-05-20 07:48:01;21.17;1017.63;2047;0;0
2022-05-20 07:49:01;21.24;1017.63;2079;0;0
2022-05-20 07:50:01;21.43;1017.64;2057;0;0
2022-05-20 07:51:02;21.48;1017.62;2040;0;0
2022-05-20 07:52:01;21.67;1017.62;2024;0;0
2022-05-20 07:53:01;21.65;1017.62;2000;0;0
2022-05-20 07:54:01;21.63;1017.6;2023;0;0
2022-05-20 07:55:01;21.79;1017.6;2036;0;0
2022-05-20 07:56:01;22.01;1017.58;2044;0;0
2022-05-20 07:57:01;21.91;1017.6;2047;0;0
2022-05-20 07:58:01;22.18;1017.61;2051;0;0
2022-05-20 07:59:01;22.2;1017.58;2058;0;0
2022-05-20 08:00:01;22.17;1017.58;2069;0;0
2022-05-20 08:01:01;22.26;1017.61;2081;0;0
2022-05-20 08:02:01;22.39;1017.59;2089;0;0
2022-05-20 08:03:01;22.52;1017.58;2094;0;0
2022-05-20 08:04:01;22.43;1017.6;2116;0;0
2022-05-20 08:05:01;22.64;1017.52;2148;0;0
2022-05-20 08:06:01;22.83;1017.52;2163;0;0
2022-05-20 08:07:01;22.96;1017.44;2141;0;0
2022-05-20 08:08:01;22.86;1017.53;2099;0;0
2022-05-20 08:09:01;22.93;1017.54;2086;0;0
2022-05-20 08:10:01;22.99;1017.54;2037;0;0
2022-05-20 08:11:02;23.04;1017.55;2091;0;0
2022-05-20 08:12:01;22.92;1017.45;2103;0;0
2022-05-20 08:13:01;22.94;1017.44;2119;0;0
2022-05-20 08:14:01;23.14;1017.41;2159;0;0
2022-05-20 08:15:02;23.14;1017.31;2169;0;0
2022-05-20 08:16:01;23.13;1017.34;2189;0;0
2022-05-20 08:17:01;23.16;1017.36;2198;0;0
2022-05-20 08:18:01;23.25;1017.34;2185;0;0
2022-05-20 08:19:01;23.27;1017.33;2181;0;0
2022-05-20 08:20:02;23.2;1017.38;2147;0;0
2022-05-20 08:21:01;23.35;1017.3;2096;0;0
2022-05-20 08:22:01;23.13;1017.39;2014;0;0
2022-05-20 08:23:01;23.02;1017.43;1958;0;0
2022-05-20 08:24:01;22.94;1017.46;1982;0;0
2022-05-20 08:25:01;22.86;1017.42;1992;0;0
2022-05-20 08:26:01;22.68;1017.36;2043;0;0
2022-05-20 08:27:01;22.87;1017.35;2066;0;0
2022-05-20 08:28:01;23.13;1017.39;2085;0;0
2022-05-20 08:29:01;23.11;1017.31;2088;0;0
2022-05-20 08:30:01;23.13;1017.31;2078;0;0
2022-05-20 08:31:01;23.16;1017.32;2072;0;0
2022-05-20 08:32:01;23.03;1017.34;2046;0;0
2022-05-20 08:33:01;23.02;1017.3;2029;0;0
2022-05-20 08:34:01;22.97;1017.22;2048;0;0
2022-05-20 08:35:01;22.91;1017.37;2078;0;0
2022-05-20 08:36:01;23.03;1017.45;2093;0;0
2022-05-20 08:37:01;23;1017.54;2106;0;0
2022-05-20 08:38:01;23.12;1017.5;2108;0;0
2022-05-20 08:39:01;23.14;1017.42;2102;0;0
2022-05-20 08:40:02;23.06;1017.38;2107;0;0
2022-05-20 08:41:01;23.14;1017.36;2106;0;0
2022-05-20 08:42:01;23.12;1017.38;2107;0;0
2022-05-20 08:43:01;22.99;1017.42;2119;0;0
2022-05-20 08:44:01;23.1;1017.48;2131;0;0
2022-05-20 08:45:01;23.21;1017.5;2139;0;0
2022-05-20 08:46:01;23.16;1017.52;2146;0;0
2022-05-20 08:47:01;23.25;1017.5;2143;0;0
2022-05-20 08:48:01;23.2;1017.46;2154;0;0
2022-05-20 08:49:01;23.28;1017.41;2163;0;0
2022-05-20 08:50:01;23.21;1017.35;2170;0;0
2022-05-20 08:51:01;23.3;1017.43;2172;0;0
2022-05-20 08:52:01;23.23;1017.35;2172;0;0
2022-05-20 08:53:01;23.4;1017.33;2177;0;0
2022-05-20 08:54:01;23.55;1017.33;2182;0;0
2022-05-20 08:55:01;23.36;1017.3;2193;0;0
2022-05-20 08:56:01;23.3;1017.37;2210;0;0
2022-05-20 08:57:01;23.33;1017.32;2255;0;0
2022-05-20 08:58:01;23.51;1017.25;2308;0;0
2022-05-20 08:59:01;23.5;1017.19;2344;0;0
2022-05-20 09:00:01;23.27;1017.21;2365;0;0
2022-05-20 09:01:01;23.31;1017.11;2323;0;0
2022-05-20 09:02:01;23.31;1017.16;2291;0;0
2022-05-20 09:03:01;23.18;1017.15;2232;0;0
2022-05-20 09:04:01;23.02;1017.19;2209;0;0
2022-05-20 09:05:01;22.89;1017.22;2219;0;0
2022-05-20 09:06:01;22.9;1017.18;2244;0;0
2022-05-20 09:07:01;22.88;1017.2;2256;0;0
2022-05-20 09:08:02;22.83;1017.13;2208;0;0
2022-05-20 09:09:01;22.82;1017.19;2204;0;0
2022-05-20 09:10:01;22.82;1017.13;2273;0;0
2022-05-20 09:11:02;22.82;1017.13;2330;0;0
2022-05-20 09:12:01;22.98;1017.2;2316;0;0
2022-05-20 09:13:01;23.08;1017.24;2353;0;0
2022-05-20 09:14:01;23.04;1017.19;2395;0;0
2022-05-20 09:15:01;23.14;1017.22;2351;0;0
2022-05-20 09:16:01;23.2;1017.16;2332;0;0
2022-05-20 09:17:01;23.24;1017.09;2306;0;0
2022-05-20 09:18:01;23.31;1017.04;2309;0;0
2022-05-20 09:19:01;23.43;1017.06;2358;0;0
2022-05-20 09:20:02;23.46;1017.12;2371;0;0
2022-05-20 09:21:01;23.41;1017.12;2281;0;0
2022-05-20 09:22:01;23.41;1017.06;2232;0;0
2022-05-20 09:23:01;23.55;1016.98;2259;0;0
2022-05-20 09:24:02;23.42;1016.95;2288;0;0
2022-05-20 09:25:01;23.33;1016.86;2338;0;0
2022-05-20 09:26:02;23.58;1016.9;2351;0;0
2022-05-20 09:27:01;23.8;1016.93;2375;0;0
2022-05-20 09:28:01;23.91;1016.89;2417;0;0
2022-05-20 09:29:01;24.47;1016.95;2428;0;0
2022-05-20 09:30:01;24.58;1016.91;2382;0;0
2022-05-20 09:31:01;24.48;1016.88;2361;0;0
2022-05-20 09:32:01;24.47;1016.83;2331;0;0
2022-05-20 09:33:01;24.43;1016.83;2301;0;0
2022-05-20 09:34:01;24.39;1016.84;2331;0;0
2022-05-20 09:35:01;24.21;1016.83;2344;0;0
2022-05-20 09:36:01;24.14;1016.83;2355;0;0
2022-05-20 09:37:01;24.02;1016.8;2399;0;0
2022-05-20 09:38:01;23.83;1016.76;2389;0;0
2022-05-20 09:39:01;24.1;1016.74;2307;0;0